COSMOS 1275 DEB, 42188

Orbit data source: Space-Track

COSMOS 1275 DEB, 42188 is space debris in LEO originally from a launch on Thu, 04 Jun 1981 UTC launched from the Plesetsk Missile And Space Complex (PKMTR). Debris objects in space refer to the collection of defunct objects orbiting the Earth. Examples of debris include non-operational satellites, rocket bodies, and fragments generated from explosions, collisions, or faulty payload assembly.

Loading next visibility...
Identifier
42188, 1981-053TC
Orbit
LEO
Country
Flag of CISCIS
Related business
Manufacturer
Unknown
Mission
Spacecraft
Bus & Motor
Unknown
Mass
Unknown
Launch date (UTC)
1981-06-04 (45 years ago)
Launch vehicle
Unknown
Launch site
Plesetsk Missile And Space Complex (PKMTR)
Object type
Payload
Rocket body
Debris
Shape & HBR
Unknown shape, 0.1 m
Radar Cross Section
Small (<0.1 m²)

Expand to show TLE details & history
Last TLE update: 16 hours ago

TLE from 16 hours ago
0 COSMOS 1275 DEB
1 42188U 81053TC  26067.81529792  .00003709  00000-0  18559-2 0  9993
2 42188  82.8498 207.3586 0049238  55.2492 305.3308 14.15864307630367
Epoch: 2026-03-08T19:34Z
TLE epoch observation values (Epoch: 2026-03-08T19:34:01.740Z)
Latitude
0.00002°
Longitude
107.33417°
Altitude
821.889 km
Speed
7.453 km/s
True Right ascension
13h 49m 26s
True Declination
0° 00' 00"
Sunlit
Object was in full shadow at epoch
Visualization orbit readout
Latitude
Unknown
Longitude
Unknown
Altitude
Unknown
Speed
Unknown
Apparent Right ascension
Unknown
Apparent Declination
Unknown
Sunlit
N/A
Visualization observer readout
Local Sidereal Time
15:47:08
Azimuth
Unknown
Elevation
Unknown
Doppler factor
Unknown
Orbital elements
Apogee altitude
871.993 km
Perigee altitude
800.946 km
Semi-major axis
7,214.606 km
Eccentricity
0.00492
Inclination
82.8498°
RAAN
207.3586°
Arg. of periapsis
55.2492°
True anomaly
304.86885°
Mean anomaly
305.3308°
Eccentric anomaly
305.09999°
Mean motion
3.5418 °/min
Orbital period
101.64 mins
BSTAR
0.0018559
Loading maneuver chart data...
Computing Atmospheric mass density...
Loading historical data...
Loading historical data...
Loading historical data...
Loading historical data...
Loading historical data...
Loading historical data...
Loading historical data...

Documentation

Showing up to 5 results
|